Dewpoint
41 41 41 41 42 41 41 39 39 35 33 32 33 33 34 34 34 35 37 36 36 37
41 40 41 42 42 43 41 36 34 32 32 32 32 34 35 35 35 35 35 35 35 36
39 41 41 42 42 38 35 33 32 31 31 31 34 36 35 34 34 34 33 33 33 33
40 41 40 37 36 33 32 32 31 32 31 32 35 36 34 34 34 33 32 32 32 33
41 41 39 33 32 33 31 32 32 32 32 33 36 35 33 32 33 32 31 30 32 32
44 32 31 32 31 31 30 31 31 32 33 34 36 33 32 33 33 33 31 31 31 30
33 32 31 32 31 32 32 32 33 34 34 35 34 33 33 33 31 30 31 32 31 30
31 31 30 29 29 30 33 33 34 34 34 34 34 33 33 32 32 29 28 30 29 26
30 28 30 29 30 31 31 33 33 33 33 33 32 33 33 30 28 31 32 32 30 26
30 28 28 28 30 30 32 32 31 31 31 31 32 34 32 32 30 30 27 27 25 22
27 28 29 29 30 30 32 30 29 30 31 30 31 34 34 33 27 28 27 25 24 23
30 29 29 29 30 30 30 30 29 29 30 30 30 34 34 32 29 25 25 26 25 24
29 29 30 30 29 29 29 29 30 29 30 30 29 32 34 33 26 26 26 26 25 27
29 28 29 29 28 28 28 27 27 29 29 29 30 29 32 34 27 27 27 25 25 25
Lifted_Index
4 4 4 5 6 6 6 6 6 7 9 10 10 11 12 13 12 12 11 11 10 10
3 4 4 5 5 5 6 6 7 8 9 10 11 12 12 12 12 12 11 11 11 10
3 3 4 5 5 5 6 8 9 10 10 11 11 12 12 12 11 11 11 11 11 11
2 3 5 5 5 6 8 10 10 10 11 11 11 11 11 11 11 11 11 12 12 12
3 4 6 7 7 9 10 11 11 11 11 11 12 12 11 11 11 11 11 12 12 12
5 6 8 9 10 11 11 11 11 12 11 11 11 11 11 10 10 10 11 11 11 11
7 8 9 10 11 12 12 12 12 12 11 11 11 10 10 10 10 10 10 10 10 9
9 9 10 11 11 11 11 11 12 11 11 11 10 10 10 9 9 10 10 9 9 8
10 10 11 11 11 11 11 11 11 11 11 10 10 10 9 9 9 9 9 8 8 7
10 10 11 11 11 11 12 12 11 11 11 11 10 10 9 9 8 8 8 7 7 7
10 10 11 11 12 12 12 12 11 11 11 11 10 9 8 8 8 8 7 7 7 7
11 11 12 13 13 12 12 11 11 11 10 9 8 8 7 7 8 7 7 7 7 7
12 12 13 13 12 12 11 11 10 10 9 8 7 7 7 8 8 8 7 7 7 7
12 13 13 12 12 11 11 11 10 9 8 7 7 7 7 8 8 8 7 7 7 7